• Join FlightAware (Why Join?)
  • Login
  • US Flag 
12:13AM EST


 

Airport Tracker/Info


-or-


 

Live Flight TrackerFlight Track Log ✈ FFT908 ✈ 03-Sep-2013 ✈ KMDW - KTTN

Flight Track Log - Related Links

Times and Time Zones

All times are in EDT time to prevent confusion due to time zone crossing. See the FFT908 flight status page for this flight to view local times or setup timezone preferences in your user account.

Time Position Orientation Groundspeed Altitude Reporting Facility
EDT Latitude Longitude Course Direction KTS MPH feet Rate Location/Type
02:48PM 41.7667 -87.7833 355° North 153 176 2,200  Level Chicago TRACON
02:49PM 41.8008 -87.7872 355° North 201 231 3,300 1,740 Climbing Chicago Center
02:50PM 41.8225 -87.7031 71° East 234 269 5,400 2,520 Climbing Chicago Center
02:51PM 41.8511 -87.6047 69° East 266 306 8,600 2,820 Climbing Chicago Center
02:52PM 41.8764 -87.5011 72° East 286 329 11,300 2,460 Climbing Chicago Center
02:53PM 41.8472 -87.3850 109° East 311 358 13,800 2,040 Climbing Chicago Center
02:54PM 41.8319 -87.2522 99° East 352 405 15,600 1,980 Climbing Chicago Center
02:55PM 41.8217 -87.0831 95° East 375 432 18,000 2,100 Climbing Chicago Center
02:56PM 41.8117 -86.9358 95° East 392 451 20,000 1,440 Climbing Chicago Center
02:57PM 41.8017 -86.7833 95° East 408 470 21,000 480 Climbing Chicago Center
02:58PM 41.7903 -86.6233 95° East 418 481 21,000  Level Chicago Center
02:59PM 41.7775 -86.4706 96° East 415 478 21,000 720 Level Chicago Center
03:00PM 41.7678 -86.3169 95° East 415 478 22,500 1,500 Climbing Chicago Center
03:01PM 41.7703 -86.1611 89° East 416 479 24,200 1,680 Climbing Chicago Center
03:02PM 41.7725 -85.9642 89° East 439 505 26,000 1,560 Climbing Chicago Center
03:03PM 41.7744 -85.7986 89° East 443 510 27,500 1,380 Climbing Chicago Center
03:04PM 41.7761 -85.6264 89° East 454 522 28,900 1,200 Climbing Chicago Center
03:05PM 41.7789 -85.4469 89° East 471 542 30,100 1,380 Climbing Chicago Center
03:06PM 41.7789 -85.2661 90° East 475 547 31,800 1,440 Climbing Chicago Center
03:07PM 41.7794 -85.0903 90° East 469 540 33,100 1,260 Climbing Chicago Center
03:08PM 41.7794 -84.9172 90° East 472 543 34,500 1,200 Climbing Chicago Center
03:09PM 41.7789 -84.7414 90° East 472 543 35,700 1,200 Climbing Chicago Center
03:10PM 41.7786 -84.5369 90° East 461 531 37,000 600 Climbing Chicago Center
03:11PM 41.7753 -84.3656 91° East 460 529 37,000  Level Chicago Center
03:12PM 41.7633 -84.1939 95° East 462 532 37,000  Level Chicago Center
03:14PM 41.7417 -83.9450 97° East 468 539 37,000  Level Cleveland Center
03:15PM 41.7281 -83.7717 96° East 468 539 37,000  Level Cleveland Center
03:16PM 41.7181 -83.5961 94° East 468 539 37,000  Level Cleveland Center
03:17PM 41.7058 -83.4258 95° East 468 539 37,000  Level Cleveland Center
03:18PM 41.6933 -83.2556 96° East 468 539 37,000  Level Cleveland Center
03:19PM 41.6783 -83.0825 97° East 468 539 37,000  Level Cleveland Center
03:20PM 41.6653 -82.9125 96° East 468 539 37,000  Level Cleveland Center
03:21PM 41.6519 -82.7425 96° East 468 539 37,000  Level Cleveland Center
03:22PM 41.6422 -82.5892 95° East 463 533 37,000  Level Cleveland Center
03:23PM 41.6283 -82.4194 96° East 463 533 37,000  Level Cleveland Center
03:24PM 41.6125 -82.2300 96° East 463 533 37,100  Climbing Cleveland Center
03:25PM 41.5981 -82.0603 96° East 463 533 37,000 -60 Descending Cleveland Center
03:26PM 41.5836 -81.8878 96° East 463 533 37,000  Level Cleveland Center
03:27PM 41.5686 -81.7183 97° East 463 533 37,000  Level Cleveland Center
03:28PM 41.5536 -81.5458 97° East 463 533 37,000  Level Cleveland Center
03:29PM 41.5381 -81.3931 98° East 463 533 37,000  Level Cleveland Center
03:30PM 41.5119 -81.2264 102° East 463 533 37,000  Level Cleveland Center
03:31PM 41.4442 -81.0650 119° Southeast 497 572 37,000  Level Cleveland Center
03:32PM 41.3467 -80.9289 134° Southeast 503 579 37,100  Climbing Cleveland Center
03:33PM 41.2469 -80.7931 134° Southeast 503 579 37,000 -60 Descending Cleveland Center
03:34PM 41.1408 -80.6464 134° Southeast 503 579 37,000  Level Cleveland Center
03:35PM 41.0572 -80.5253 132° Southeast 502 578 37,000  Level Cleveland Center
03:36PM 40.9614 -80.3933 134° Southeast 502 578 37,000 -180 Level Cleveland Center
03:37PM 40.8692 -80.2619 133° Southeast 496 571 36,700 -540 Descending Cleveland Center
03:38PM 40.7897 -80.1197 126° Southeast 491 565 36,000 -360 Descending Cleveland Center
03:39PM 40.7347 -79.9611 115° Southeast 481 554 36,000  Level Cleveland Center
03:40PM 40.6731 -79.7892 115° Southeast 475 547 36,000  Level Cleveland Center
03:41PM 40.6156 -79.6314 116° Southeast 470 541 36,000  Level Cleveland Center
03:42PM 40.5808 -79.4650 105° East 465 535 36,000  Level Cleveland Center
03:43PM 40.5539 -79.3014 102° East 459 528 36,000 -240 Level Cleveland Center
03:44PM 40.5228 -79.1381 104° East 459 528 35,600 -720 Descending Cleveland Center
03:45PM 40.4958 -78.9750 102° East 454 522 34,600 -1,260 Descending Cleveland Center
03:46PM 40.4664 -78.8175 104° East 448 516 33,100 -1,620 Descending Cleveland Center
03:47PM 40.4386 -78.6597 103° East 448 516 31,400 -1,680 Descending Cleveland Center
03:48PM 40.4089 -78.5053 104° East 443 510 29,800 -1,740 Descending Cleveland Center
03:50PM 40.3408 -78.1267 103° East 458 527 25,700 -1,500 Descending New York Center
03:51PM 40.3156 -77.9633 101° East 463 533 25,000 -360 Descending New York Center
03:52PM 40.3003 -77.7986 97° East 453 521 25,000  Level New York Center
03:53PM 40.2808 -77.6358 99° East 453 521 25,000 -840 Level New York Center
03:54PM 40.2631 -77.4708 98° East 453 521 23,400 -1,980 Descending New York Center
03:55PM 40.2447 -77.3142 99° East 448 516 21,100 -2,340 Descending New York Center
03:56PM 40.2261 -77.1600 99° East 436 502 18,800 -2,040 Descending New York Center
03:57PM 40.2125 -77.0256 98° East 421 484 17,100 -1,200 Descending New York Center
03:58PM 40.1994 -76.8775 97° East 416 479 16,500 -1,500 Descending New York Center
03:59PM 40.1844 -76.7186 97° East 405 466 14,100 -2,100 Descending New York Center
04:00PM 40.1683 -76.5814 99° East 393 452 12,300 -1,080 Descending New York Center
04:01PM 40.1564 -76.4417 96° East 383 441 12,000 -180 Descending New York Center
04:02PM 40.1433 -76.3211 98° East 383 441 12,000  Level New York Center
04:03PM 40.1275 -76.1706 98° East 378 435 12,000 -540 Level New York Center
04:04PM 40.1125 -76.0419 99° East 372 428 11,000 -1,020 Descending New York Center
04:05PM 40.1178 -75.9200 87° East 353 406 10,000 -1,200 Descending New York Center
04:06PM 40.1306 -75.8206 80° East 320 368 8,600 -1,500 Descending New York Center
04:07PM 40.1481 -75.6997 79° East 310 357 7,100 -1,500 Descending New York Center
04:08PM 40.1622 -75.6083 79° East 300 345 5,700 -1,080 Descending New York Center
04:09PM 40.1772 -75.4953 80° East 289 333 5,000 -360 Descending New York Center
04:10PM 40.1892 -75.4036 80° East 289 333 5,000 -600 Level New York Center
04:11PM 40.2081 -75.2933 77° East 284 327 3,900 -1,020 Descending New York Center
04:12PM 40.2244 -75.1939 78° East 274 315 3,000 -480 Descending New York Center
04:13PM 40.2383 -75.1022 79° East 269 310 3,000 -120 Level New York Center
04:14PM 40.2247 -75.0200 102° East 243 280 2,800 -360 Descending New York Center
04:15PM 40.2144 -74.9514 101° East 225 259 2,300 -660 Descending New York Center
04:16PM 40.2253 -74.8867 78° East 178 205 1,500 -900 Descending New York Center
04:17PM 40.2536 -74.8475 47° Northeast 166 191 600 -900 Descending New York Center
04:19PM 40.2667 -74.8000 78° East  Level FlightAware Approximate
04:26PM 40.2767 -74.8135 78° East  Level Estimated